This demonstration page uses our WeatherBlox Daily Observations layout. Learn more.

Left ArrowRight Arrow

38.80484, -77.04692

Hourly Observations for August 4, 2022

Temp ( °F °C ) Dew Point ( °F °C ) Humidity (%) Winds ( mph kmh ) Pressure ( in mb ) Visibility ( mi km ) Precip ( " mm )
12:52 am 00:52 Clear 80 26.7 70 21.1 71 71 S 6 9 30.04 1017 10 16 0.00 0.00
1:52 am 01:52 Clear 79 26.1 72 22.2 79 79 S 8 13 30.04 1017 10 16 0.00 0.00
2:52 am 02:52 Clear 78 25.6 71 21.7 79 79 SW 5 7 30.03 1017 10 16 0.00 0.00
3:52 am 03:52 Clear 78 25.6 71 21.7 79 79 SSW 5 7 30.03 1017 10 16 0.00 0.00
4:52 am 04:52 Clear 78 25.6 72 22.2 82 82 SSW 6 9 30.03 1017 10 16 0.00 0.00
5:52 am 05:52 Mostly Clear 77 25 72 22.2 85 85 SSW 5 7 30.03 1017 10 16 0.00 0.00
6:52 am 06:52 Mostly Sunny 78 25.6 72 22.2 82 82 S 3 6 30.06 1018 10 16 0.00 0.00
7:52 am 07:52 Mostly Sunny 80 26.7 74 23.3 82 82 S 6 9 30.06 1018 10 16 0.00 0.00
8:52 am 08:52 Mostly Sunny 81 27.2 74 23.3 79 79 SSE 6 9 30.07 1018 10 16 0.00 0.00
9:52 am 09:52 Mostly Sunny 85 29.4 73 22.8 68 68 S 8 13 30.06 1018 10 16 0.00 0.00
10:52 am 10:52 Mostly Sunny 87 30.6 74 23.3 65 65 S 6 9 30.07 1018 10 16 0.00 0.00
11:52 am 11:52 Mostly Sunny 90 32.2 74 23.3 59 59 SSE 6 9 30.07 1018 10 16 0.00 0.00
12:52 pm 12:52 Partly Cloudy 92 33.3 74 23.3 56 56 SSE 7 11 30.06 1018 10 16 0.00 0.00
1:52 pm 13:52 Partly Cloudy 92 33.3 72 22.2 52 52 S 9 15 30.05 1018 10 16 0.00 0.00
2:52 pm 14:52 Partly Cloudy 94 34.4 72 22.2 49 49 S 13 20 30.03 1017 10 16 0.00 0.00
3:52 pm 15:52 Mostly Cloudy 94 34.4 74 23.3 52 52 S 14 22 30.01 1016 10 16 0.00 0.00
4:52 pm 16:52 Mostly Cloudy 94 34.4 72 22.2 49 49 S 12 19 30.01 1016 10 16 0.00 0.00
5:24 pm 17:24 Mostly Cloudy with Nearby Thunderstorms 92 33.3 74 23.3 56 56 S 15 24 30.02 1016 10 16 0.00 0.00
5:33 pm 17:33 Mostly Cloudy with Thunderstorms 92 33.3 74 23.3 56 56 S 15 24 30.02 1016 10 16 0.00 0.00
5:52 pm 17:52 Windy with Storms Likely 83 28.3 65 18.3 55 55 SW 28 44 30.03 1017 4 6 0.00 0.00
5:57 pm 17:57 Mostly Cloudy with Strong Thunderstorms 82 27.8 64 17.8 55 55 W 24 39 30.03 1017 2 3 0.01 0.25
6:05 pm 18:05 Mostly Cloudy with Thunderstorms 85 29.4 66 18.9 53 53 SW 20 31 30.04 1017 3 4 0.07 1.78
6:09 pm 18:09 Cloudy with Thunderstorms 83 28.3 69 20.6 63 63 WSW 12 19 30.03 1017 3 5 0.08 2.03
6:21 pm 18:21 Mostly Cloudy with Nearby Thunderstorms 83 28.3 71 21.7 67 67 VRB 6 9 30.02 1016 10 16 0.09 2.29
6:32 pm 18:32 Mostly Cloudy with Thunderstorms 83 28.3 70 21.1 65 65 N 23 37 30.04 1017 10 16 0.09 2.29
6:40 pm 18:40 Mostly Cloudy with Thunderstorms 82 27.8 69 20.6 65 65 NNW 15 24 30.06 1018 10 16 0.09 2.29
6:52 pm 18:52 Windy with Storms Likely 80 26.7 69 20.6 69 69 NW 24 39 30.10 1019 3 5 0.09 2.29
6:55 pm 18:55 Cloudy with Strong Thunderstorms 77 25 70 21.1 79 79 NW 20 31 30.10 1019 1 2 0.03 0.76
6:58 pm 18:58 Cloudy with Strong Thunderstorms 75 23.9 70 21.1 84 84 WNW 30 48 30.10 1019 1 1 0.11 2.79
7:00 pm 19:00 Cloudy with Strong Thunderstorms 75 23.9 68 20 79 79 NW 16 26 30.07 1018 0 0 0.22 5.59
7:10 pm 19:10 Mostly Cloudy with Thunderstorms 78 25.6 64 17.8 62 62 NNW 17 28 30.05 1018 1 2 0.59 14.99
7:13 pm 19:13 Mostly Cloudy with Thunderstorms 76 24.4 67 19.4 74 74 N 13 20 30.04 1017 4 6 0.60 15.24
7:14 pm 19:14 Mostly Cloudy with Thunderstorms 75 23.9 68 20 79 79 N 13 20 30.04 1017 5 8 0.60 15.24
7:24 pm 19:24 Mostly Cloudy with Thunderstorms 75 23.9 69 20.6 82 82 NNE 6 9 30.05 1018 10 16 0.60 15.24
7:35 pm 19:35 Mostly Cloudy with Nearby Thunderstorms 76 24.4 69 20.6 79 79 NE 7 11 30.06 1018 10 16 0.60 15.24
7:42 pm 19:42 Mostly Cloudy with Thunderstorms 75 24 70 21 83 83 E 5 7 30.06 1018 10 16 0.00 0.00
7:52 pm 19:52 Mostly Cloudy with Thunderstorms 75 24 70 21 83 83 ESE 8 13 30.09 1019 10 16 0.60 15.24
7:59 pm 19:59 Mostly Cloudy with Nearby Thunderstorms 76 24.4 69 20.6 79 79 E 8 13 30.09 1019 10 16 0.00 0.00
8:34 pm 20:34 Mostly Cloudy with Thunderstorms 77 25 69 20.6 77 77 SE 8 13 30.10 1019 10 16 0.00 0.00
8:52 pm 20:52 Mostly Cloudy with Nearby Thunderstorms 77 25 69 20.6 77 77 WSW 3 6 30.10 1019 10 16 0.00 0.00
9:02 pm 21:02 Mostly Cloudy 77 25 69 20.6 77 77 N 10 17 30.09 1019 10 16 0.00 0.00
9:15 pm 21:15 Mostly Cloudy with Nearby Thunderstorms 77 25 70 21.1 79 79 NNE 10 17 30.09 1019 10 16 0.00 0.00
9:43 pm 21:43 Mostly Cloudy with Thunderstorms 77 25 71 21.7 82 82 NNW 13 20 30.14 1021 10 16 0.00 0.00
9:52 pm 21:52 Mostly Cloudy with Thunderstorms 77 25 71 21.7 82 82 W 13 20 30.17 1022 10 16 0.00 0.00
10:05 pm 22:05 Cloudy with Nearby Thunderstorms 75 23.9 70 21.1 84 84 NW 18 30 30.15 1021 8 13 0.00 0.00
10:34 pm 22:34 Cloudy with Strong Thunderstorms 74 23.3 70 21.1 88 88 N 14 22 30.16 1021 3 4 0.15 3.81
10:37 pm 22:37 Cloudy with Thunderstorms 74 23.3 70 21.1 88 88 NNE 12 19 30.16 1021 3 5 0.16 4.06
10:52 pm 22:52 Mostly Cloudy with Thunderstorms 75 23.9 71 21.7 88 88 NE 12 19 30.15 1021 9 14 0.17 4.32
11:32 pm 23:32 Cloudy with Light Rain 75 23.9 71 21.7 88 88 ENE 12 19 30.15 1021 10 16 0.02 0.51
11:52 pm 23:52 Cloudy with Light Rain 75 23.9 69 20.6 82 82 NE 9 15 30.14 1021 10 16 0.06 1.52

Powered by AerisWeather